Year,Month,Day,Hour,Minute,Value (Times are PST for temperature in C)
2023,04,23,00,00,-6.60
2023,04,23,00,01,-6.60
2023,04,23,00,02,-6.60
2023,04,23,00,03,-6.60
2023,04,23,00,04,-6.60
2023,04,23,00,05,-6.60
2023,04,23,00,06,-6.60
2023,04,23,00,07,-6.60
2023,04,23,00,08,-6.60
2023,04,23,00,09,-6.70
2023,04,23,00,10,-6.70
2023,04,23,00,11,-6.70
2023,04,23,00,12,-6.70
2023,04,23,00,13,-6.70
2023,04,23,00,14,-6.70
2023,04,23,00,15,-6.70
2023,04,23,00,16,-6.70
2023,04,23,00,17,-6.70
2023,04,23,00,18,-6.70
2023,04,23,00,19,-6.70
2023,04,23,00,20,-6.80
2023,04,23,00,21,-6.80
2023,04,23,00,22,-6.80
2023,04,23,00,23,-6.80
2023,04,23,00,24,-6.80
2023,04,23,00,25,-6.80
2023,04,23,00,26,-6.80
2023,04,23,00,27,-6.80
2023,04,23,00,28,-6.80
2023,04,23,00,29,-6.80
2023,04,23,00,30,-6.80
2023,04,23,00,31,-6.90
2023,04,23,00,32,-6.90
2023,04,23,00,33,-6.90
2023,04,23,00,34,-6.90
2023,04,23,00,35,-6.90
2023,04,23,00,36,-6.90
2023,04,23,00,37,-7.00
2023,04,23,00,38,-7.00
2023,04,23,00,39,-7.00
2023,04,23,00,40,-7.00
2023,04,23,00,41,-7.00
2023,04,23,00,42,-7.00
2023,04,23,00,43,-7.00
2023,04,23,00,44,-7.10
2023,04,23,00,45,-7.10
2023,04,23,00,46,-7.10
2023,04,23,00,47,-7.10
2023,04,23,00,48,-7.20
2023,04,23,00,49,-7.20
2023,04,23,00,50,-7.20
2023,04,23,00,51,-7.20
2023,04,23,00,52,-7.20
2023,04,23,00,53,-7.30
2023,04,23,00,54,-7.30
2023,04,23,00,55,-7.30
2023,04,23,00,56,-7.30
2023,04,23,00,57,-7.30
2023,04,23,00,58,-7.30
2023,04,23,00,59,-7.30
2023,04,23,01,00,-7.30
2023,04,23,01,01,-7.30
2023,04,23,01,02,-7.40
2023,04,23,01,03,-7.40
2023,04,23,01,04,-7.40
2023,04,23,01,05,-7.40
2023,04,23,01,06,-7.40
2023,04,23,01,07,-7.40
2023,04,23,01,08,-7.40
2023,04,23,01,09,-7.50
2023,04,23,01,10,-7.50
2023,04,23,01,11,-7.50
2023,04,23,01,12,-7.50
2023,04,23,01,13,-7.50
2023,04,23,01,14,-7.50
2023,04,23,01,15,-7.50
2023,04,23,01,16,-7.50
2023,04,23,01,17,-7.50
2023,04,23,01,18,-7.60
2023,04,23,01,19,-7.60
2023,04,23,01,20,-7.60
2023,04,23,01,21,-7.60
2023,04,23,01,22,-7.60
2023,04,23,01,23,-7.60
2023,04,23,01,24,-7.60
2023,04,23,01,25,-7.70
2023,04,23,01,26,-7.70
2023,04,23,01,27,-7.70
2023,04,23,01,28,-7.70
2023,04,23,01,29,-7.70
2023,04,23,01,30,-7.70
2023,04,23,01,31,-7.70
2023,04,23,01,32,-7.70
2023,04,23,01,33,-7.70
2023,04,23,01,34,-7.70
2023,04,23,01,35,-7.70
2023,04,23,01,36,-7.80
2023,04,23,01,37,-7.80
2023,04,23,01,38,-7.80
2023,04,23,01,39,-7.80
2023,04,23,01,40,-7.80
2023,04,23,01,41,-7.80
2023,04,23,01,42,-7.80
2023,04,23,01,43,-7.80
2023,04,23,01,44,-7.80
2023,04,23,01,45,-7.80
2023,04,23,01,46,-7.80
2023,04,23,01,47,-7.80
2023,04,23,01,48,-7.90
2023,04,23,01,49,-7.90
2023,04,23,01,50,-7.90
2023,04,23,01,51,-7.90
2023,04,23,01,52,-8.00
2023,04,23,01,53,-8.00
2023,04,23,01,54,-8.00
2023,04,23,01,55,-8.00
2023,04,23,01,56,-8.00
2023,04,23,01,57,-8.00
2023,04,23,01,58,-8.00
2023,04,23,01,59,-8.00
2023,04,23,02,00,-8.10
2023,04,23,02,01,-8.10
2023,04,23,02,02,-8.10
2023,04,23,02,03,-8.10
2023,04,23,02,04,-8.10
2023,04,23,02,05,-8.20
2023,04,23,02,06,-8.20
2023,04,23,02,07,-8.20
2023,04,23,02,08,-8.20
2023,04,23,02,09,-8.20
2023,04,23,02,10,-8.20
2023,04,23,02,11,-8.30
2023,04,23,02,12,-8.30
2023,04,23,02,13,-8.30
2023,04,23,02,14,-8.30
2023,04,23,02,15,-8.30
2023,04,23,02,16,-8.30
2023,04,23,02,17,-8.30
2023,04,23,02,18,-8.40
2023,04,23,02,19,-8.40
2023,04,23,02,20,-8.40
2023,04,23,02,21,-8.40
2023,04,23,02,22,-8.40
2023,04,23,02,23,-8.50
2023,04,23,02,24,-8.50
2023,04,23,02,25,-8.50
2023,04,23,02,26,-8.60
2023,04,23,02,27,-8.60
2023,04,23,02,28,-8.60
2023,04,23,02,29,-8.60
2023,04,23,02,30,-8.60
2023,04,23,02,31,-8.60
2023,04,23,02,32,-8.60
2023,04,23,02,33,-8.70
2023,04,23,02,34,-8.70
2023,04,23,02,35,-8.70
2023,04,23,02,36,-8.70
2023,04,23,02,37,-8.70
2023,04,23,02,38,-8.70
2023,04,23,02,39,-8.70
2023,04,23,02,40,-8.70
2023,04,23,02,41,-8.70
2023,04,23,02,42,-8.70
2023,04,23,02,43,-8.70
2023,04,23,02,44,-8.70
2023,04,23,02,45,-8.70
2023,04,23,02,46,-8.70
2023,04,23,02,47,-8.80
2023,04,23,02,48,-8.80
2023,04,23,02,49,-8.80
2023,04,23,02,50,-8.80
2023,04,23,02,51,-8.80
2023,04,23,02,52,-8.80
2023,04,23,02,53,-8.80
2023,04,23,02,54,-8.90
2023,04,23,02,55,-8.90
2023,04,23,02,56,-8.90
2023,04,23,02,57,-8.90
2023,04,23,02,58,-8.90
2023,04,23,02,59,-8.90
2023,04,23,03,00,-8.90
2023,04,23,03,01,-8.90
2023,04,23,03,02,-8.90
2023,04,23,03,03,-8.90
2023,04,23,03,04,-9.00
2023,04,23,03,05,-9.00
2023,04,23,03,06,-9.00
2023,04,23,03,07,-9.00
2023,04,23,03,08,-9.00
2023,04,23,03,09,-9.00
2023,04,23,03,10,-9.10
2023,04,23,03,11,-9.10
2023,04,23,03,12,-9.10
2023,04,23,03,13,-9.10
2023,04,23,03,14,-9.10
2023,04,23,03,15,-9.10
2023,04,23,03,16,-9.10
2023,04,23,03,17,-9.10
2023,04,23,03,18,-9.10
2023,04,23,03,19,-9.10
2023,04,23,03,20,-9.10
2023,04,23,03,21,-9.20
2023,04,23,03,22,-9.20
2023,04,23,03,23,-9.20
2023,04,23,03,24,-9.20
2023,04,23,03,25,-9.20
2023,04,23,03,26,-9.20
2023,04,23,03,27,-9.20
2023,04,23,03,28,-9.20
2023,04,23,03,29,-9.20
2023,04,23,03,30,-9.20
2023,04,23,03,31,-9.20
2023,04,23,03,32,-9.20
2023,04,23,03,33,-9.20
2023,04,23,03,34,-9.20
2023,04,23,03,35,-9.20
2023,04,23,03,36,-9.20
2023,04,23,03,37,-9.20
2023,04,23,03,38,-9.30
2023,04,23,03,39,-9.30
2023,04,23,03,40,-9.30
2023,04,23,03,41,-9.30
2023,04,23,03,42,-9.30
2023,04,23,03,43,-9.30
2023,04,23,03,44,-9.30
2023,04,23,03,45,-9.30
2023,04,23,03,46,-9.30
2023,04,23,03,47,-9.30
2023,04,23,03,48,-9.30
2023,04,23,03,49,-9.30
2023,04,23,03,50,-9.30
2023,04,23,03,51,-9.30
2023,04,23,03,52,-9.30
2023,04,23,03,53,-9.30
2023,04,23,03,54,-9.30
2023,04,23,03,55,-9.30
2023,04,23,03,56,-9.30
2023,04,23,03,57,-9.30
2023,04,23,03,58,-9.30
2023,04,23,03,59,-9.30
2023,04,23,04,00,-9.30
2023,04,23,04,01,-9.30
2023,04,23,04,02,-9.30
2023,04,23,04,03,-9.30
2023,04,23,04,04,-9.30
2023,04,23,04,05,-9.40
2023,04,23,04,06,-9.40
2023,04,23,04,07,-9.40
2023,04,23,04,08,-9.40
2023,04,23,04,09,-9.40
2023,04,23,04,10,-9.40
2023,04,23,04,11,-9.40
2023,04,23,04,12,-9.40
2023,04,23,04,13,-9.40
2023,04,23,04,14,-9.40
2023,04,23,04,15,-9.40
2023,04,23,04,16,-9.40
2023,04,23,04,17,-9.40
2023,04,23,04,18,-9.40
2023,04,23,04,19,-9.40
2023,04,23,04,20,-9.40
2023,04,23,04,21,-9.40
2023,04,23,04,22,-9.40
2023,04,23,04,23,-9.40
2023,04,23,04,24,-9.40
2023,04,23,04,25,-9.40
2023,04,23,04,26,-9.40
2023,04,23,04,27,-9.40
2023,04,23,04,28,-9.40
2023,04,23,04,29,-9.40
2023,04,23,04,30,-9.50
2023,04,23,04,31,-9.50
2023,04,23,04,32,-9.50
2023,04,23,04,33,-9.50
2023,04,23,04,34,-9.50
2023,04,23,04,35,-9.50
2023,04,23,04,36,-9.50
2023,04,23,04,37,-9.50
2023,04,23,04,38,-9.50
2023,04,23,04,39,-9.50
2023,04,23,04,40,-9.50
2023,04,23,04,41,-9.50
2023,04,23,04,42,-9.50
2023,04,23,04,43,-9.50
2023,04,23,04,44,-9.50
2023,04,23,04,45,-9.50
2023,04,23,04,46,-9.60
2023,04,23,04,47,-9.50
2023,04,23,04,48,-9.60
2023,04,23,04,49,-9.60
2023,04,23,04,50,-9.60
2023,04,23,04,51,-9.60
2023,04,23,04,52,-9.60
2023,04,23,04,53,-9.60
2023,04,23,04,54,-9.60
2023,04,23,04,55,-9.60
2023,04,23,04,56,-9.60
2023,04,23,04,57,-9.60
2023,04,23,04,58,-9.60
2023,04,23,04,59,-9.60
2023,04,23,05,00,-9.60
2023,04,23,05,01,-9.60
2023,04,23,05,02,-9.60
2023,04,23,05,03,-9.70
2023,04,23,05,04,-9.70
2023,04,23,05,05,-9.70
2023,04,23,05,06,-9.70
2023,04,23,05,07,-9.70
2023,04,23,05,08,-9.70
2023,04,23,05,09,-9.70
2023,04,23,05,10,-9.70
2023,04,23,05,11,-9.70
2023,04,23,05,12,-9.70
2023,04,23,05,13,-9.70
2023,04,23,05,14,-9.70
2023,04,23,05,15,-9.70
2023,04,23,05,16,-9.70
2023,04,23,05,17,-9.70
2023,04,23,05,18,-9.80
2023,04,23,05,19,-9.80
2023,04,23,05,20,-9.80
2023,04,23,05,21,-9.80
2023,04,23,05,22,-9.80
2023,04,23,05,23,-9.80
2023,04,23,05,24,-9.80
2023,04,23,05,25,-9.80
2023,04,23,05,26,-9.80
2023,04,23,05,27,-9.80
2023,04,23,05,28,-9.80
2023,04,23,05,29,-9.80
2023,04,23,05,30,-9.80
2023,04,23,05,31,-9.80
2023,04,23,05,32,-9.80
2023,04,23,05,33,-9.80
2023,04,23,05,34,-9.80
2023,04,23,05,35,-9.80
2023,04,23,05,36,-9.80
2023,04,23,05,37,-9.80
2023,04,23,05,38,-9.80
2023,04,23,05,39,-9.80
2023,04,23,05,40,-9.80
2023,04,23,05,41,-9.80
2023,04,23,05,42,-9.80
2023,04,23,05,43,-9.90
2023,04,23,05,44,-9.90
2023,04,23,05,45,-9.90
2023,04,23,05,46,-9.90
2023,04,23,05,47,-9.90
2023,04,23,05,48,-9.90
2023,04,23,05,49,-9.90
2023,04,23,05,50,-9.90
2023,04,23,05,51,-9.90
2023,04,23,05,52,-9.90
2023,04,23,05,53,-9.90
2023,04,23,05,54,-9.90
2023,04,23,05,55,-9.90
2023,04,23,05,56,-9.90
2023,04,23,05,57,-9.90
2023,04,23,05,58,-9.90
2023,04,23,05,59,-9.90
2023,04,23,06,00,-9.90
2023,04,23,06,01,-9.90
2023,04,23,06,02,-9.90
2023,04,23,06,03,-9.90
2023,04,23,06,04,-9.90
2023,04,23,06,05,-9.90
2023,04,23,06,06,-9.90
2023,04,23,06,07,-10.00
2023,04,23,06,08,-10.00
2023,04,23,06,09,-10.00
2023,04,23,06,10,-10.00
2023,04,23,06,11,-10.10
2023,04,23,06,12,-10.10
2023,04,23,06,13,-10.10
2023,04,23,06,14,-10.10
2023,04,23,06,15,-10.10
2023,04,23,06,16,-10.10
2023,04,23,06,17,-10.10
2023,04,23,06,18,-10.10
2023,04,23,06,19,-10.10
2023,04,23,06,20,-10.10
2023,04,23,06,21,-10.20
2023,04,23,06,22,-10.20
2023,04,23,06,23,-10.20
2023,04,23,06,24,-10.20
2023,04,23,06,25,-10.20
2023,04,23,06,26,-10.20
2023,04,23,06,27,-10.20
2023,04,23,06,28,-10.20
2023,04,23,06,29,-10.20
2023,04,23,06,30,-10.20
2023,04,23,06,31,-10.20
2023,04,23,06,32,-10.20
2023,04,23,06,33,-10.20
2023,04,23,06,34,-10.20
2023,04,23,06,35,-10.20
2023,04,23,06,36,-10.20
2023,04,23,06,37,-10.20
2023,04,23,06,38,-10.20
2023,04,23,06,39,-10.20
2023,04,23,06,40,-10.20
2023,04,23,06,41,-10.20
2023,04,23,06,42,-10.20
2023,04,23,06,43,-10.20
2023,04,23,06,44,-10.20
2023,04,23,06,45,-10.20
2023,04,23,06,46,-10.30
2023,04,23,06,47,-10.30
2023,04,23,06,48,-10.30
2023,04,23,06,49,-10.30
2023,04,23,06,50,-10.30
2023,04,23,06,51,-10.30
2023,04,23,06,52,-10.30
2023,04,23,06,53,-10.30
2023,04,23,06,54,-10.30
2023,04,23,06,55,-10.30
2023,04,23,06,56,-10.30
2023,04,23,06,57,-10.30
2023,04,23,06,58,-10.30
2023,04,23,06,59,-10.30
2023,04,23,07,00,-10.30
2023,04,23,07,01,-10.30
2023,04,23,07,02,-10.30
2023,04,23,07,03,-10.30
2023,04,23,07,04,-10.30
2023,04,23,07,05,-10.30
2023,04,23,07,06,-10.30
2023,04,23,07,07,-10.30
2023,04,23,07,08,-10.30
2023,04,23,07,09,-10.30
2023,04,23,07,10,-10.30
2023,04,23,07,11,-10.30
2023,04,23,07,12,-10.40
2023,04,23,07,13,-10.40
2023,04,23,07,14,-10.40
2023,04,23,07,15,-10.40
2023,04,23,07,16,-10.40
2023,04,23,07,17,-10.40
2023,04,23,07,18,-10.40
2023,04,23,07,19,-10.40
2023,04,23,07,20,-10.40
2023,04,23,07,21,-10.40
2023,04,23,07,22,-10.40
2023,04,23,07,23,-10.40
2023,04,23,07,24,-10.40
2023,04,23,07,25,-10.40
2023,04,23,07,26,-10.40
2023,04,23,07,27,-10.40
2023,04,23,07,28,-10.40
2023,04,23,07,29,-10.40
2023,04,23,07,30,-10.40
2023,04,23,07,31,-10.40
2023,04,23,07,32,-10.40
2023,04,23,07,33,-10.40
2023,04,23,07,34,-10.40
2023,04,23,07,35,-10.40
2023,04,23,07,36,-10.40
2023,04,23,07,37,-10.40
2023,04,23,07,38,-10.40
2023,04,23,07,39,-10.40
2023,04,23,07,40,-10.40
2023,04,23,07,41,-10.40
2023,04,23,07,42,-10.40
2023,04,23,07,43,-10.40
2023,04,23,07,44,-10.40
2023,04,23,07,45,-10.40
2023,04,23,07,46,-10.40
2023,04,23,07,47,-10.40
2023,04,23,07,48,-10.40
2023,04,23,07,49,-10.50
2023,04,23,07,50,-10.50
2023,04,23,07,51,-10.50
2023,04,23,07,52,-10.50
2023,04,23,07,53,-10.50
2023,04,23,07,54,-10.50
2023,04,23,07,55,-10.50
2023,04,23,07,56,-10.50
2023,04,23,07,57,-10.50
2023,04,23,07,58,-10.40
2023,04,23,07,59,-10.40
2023,04,23,08,00,-10.40
2023,04,23,08,01,-10.40
2023,04,23,08,02,-10.40
2023,04,23,08,03,-10.40
2023,04,23,08,04,-10.40
2023,04,23,08,05,-10.40
2023,04,23,08,06,-10.40
2023,04,23,08,07,-10.40
2023,04,23,08,08,-10.40
2023,04,23,08,09,-10.40
2023,04,23,08,10,-10.40
2023,04,23,08,11,-10.40
2023,04,23,08,12,-10.40
2023,04,23,08,13,-10.40
2023,04,23,08,14,-10.40
2023,04,23,08,15,-10.40
2023,04,23,08,16,-10.40
2023,04,23,08,17,-10.40
2023,04,23,08,18,-10.40
2023,04,23,08,19,-10.40
2023,04,23,08,20,-10.40
2023,04,23,08,21,-10.40
2023,04,23,08,22,-10.30
2023,04,23,08,23,-10.30
2023,04,23,08,24,-10.30
2023,04,23,08,25,-10.30
2023,04,23,08,26,-10.30
2023,04,23,08,27,-10.30
2023,04,23,08,28,-10.30
2023,04,23,08,29,-10.30
2023,04,23,08,30,-10.30
2023,04,23,08,31,-10.30
2023,04,23,08,32,-10.30
2023,04,23,08,33,-10.30
2023,04,23,08,34,-10.30
2023,04,23,08,35,-10.30
2023,04,23,08,36,-10.30
2023,04,23,08,37,-10.30
2023,04,23,08,38,-10.30
2023,04,23,08,39,-10.30
2023,04,23,08,40,-10.30
2023,04,23,08,41,-10.30
2023,04,23,08,42,-10.30
2023,04,23,08,43,-10.30
2023,04,23,08,44,-10.30
2023,04,23,08,45,-10.30
2023,04,23,08,46,-10.30
2023,04,23,08,47,-10.30
2023,04,23,08,48,-10.30
2023,04,23,08,49,-10.30
2023,04,23,08,50,-10.30
2023,04,23,08,51,-10.30
2023,04,23,08,52,-10.30
2023,04,23,08,53,-10.30
2023,04,23,08,54,-10.30
2023,04,23,08,55,-10.30
2023,04,23,08,56,-10.30
2023,04,23,08,57,-10.30
2023,04,23,08,58,-10.30
2023,04,23,08,59,-10.30
2023,04,23,09,00,-10.30
2023,04,23,09,01,-10.30
2023,04,23,09,02,-10.30
2023,04,23,09,03,-10.30
2023,04,23,09,04,-10.30
2023,04,23,09,05,-10.30
2023,04,23,09,06,-10.30
2023,04,23,09,07,-10.30
2023,04,23,09,08,-10.30
2023,04,23,09,09,-10.30
2023,04,23,09,10,-10.30
2023,04,23,09,11,-10.30
2023,04,23,09,12,-10.30
2023,04,23,09,13,-10.30
2023,04,23,09,14,-10.30
2023,04,23,09,15,-10.30
2023,04,23,09,16,-10.30
2023,04,23,09,17,-10.30
2023,04,23,09,18,-10.30
2023,04,23,09,19,-10.30
2023,04,23,09,20,-10.30
2023,04,23,09,21,-10.30
2023,04,23,09,22,-10.30
2023,04,23,09,23,-10.30
2023,04,23,09,24,-10.30
2023,04,23,09,25,-10.30
2023,04,23,09,26,-10.30
2023,04,23,09,27,-10.30
2023,04,23,09,28,-10.30
2023,04,23,09,29,-10.30
2023,04,23,09,30,-10.30
2023,04,23,09,31,-10.30
2023,04,23,09,32,-10.30
2023,04,23,09,33,-10.30
2023,04,23,09,34,-10.30
2023,04,23,09,35,-10.30
2023,04,23,09,36,-10.30
2023,04,23,09,37,-10.30
2023,04,23,09,38,-10.30
2023,04,23,09,39,-10.30
2023,04,23,09,40,-10.30
2023,04,23,09,41,-10.30
2023,04,23,09,42,-10.30
2023,04,23,09,43,-10.30
2023,04,23,09,44,-10.30
2023,04,23,09,45,-10.30
2023,04,23,09,46,-10.30
2023,04,23,09,47,-10.30
2023,04,23,09,48,-10.30
2023,04,23,09,49,-10.30
2023,04,23,09,50,-10.30
2023,04,23,09,51,-10.30
2023,04,23,09,52,-10.30
2023,04,23,09,53,-10.30
2023,04,23,09,54,-10.30
2023,04,23,09,55,-10.20
2023,04,23,09,56,-10.20
2023,04,23,09,57,-10.20
2023,04,23,09,58,-10.20
2023,04,23,09,59,-10.20
2023,04,23,10,00,-10.20
2023,04,23,10,01,-10.20
2023,04,23,10,02,-10.20
2023,04,23,10,03,-10.20
2023,04,23,10,04,-10.20
2023,04,23,10,05,-10.20
2023,04,23,10,06,-10.20
2023,04,23,10,07,-10.20
2023,04,23,10,08,-10.20
2023,04,23,10,09,-10.10
2023,04,23,10,10,-10.10
2023,04,23,10,11,-10.10
2023,04,23,10,12,-10.10
2023,04,23,10,13,-10.10
2023,04,23,10,14,-10.10
2023,04,23,10,15,-10.10
2023,04,23,10,16,-10.10
2023,04,23,10,17,-10.10
2023,04,23,10,18,-10.10
2023,04,23,10,19,-10.10
2023,04,23,10,20,-10.10
2023,04,23,10,21,-10.10
2023,04,23,10,22,-10.10
2023,04,23,10,23,-10.10
2023,04,23,10,24,-10.10
2023,04,23,10,25,-10.10
2023,04,23,10,26,-10.10
2023,04,23,10,27,-10.00
2023,04,23,10,28,-10.00
2023,04,23,10,29,-10.00
2023,04,23,10,30,-10.00
2023,04,23,10,31,-10.00
2023,04,23,10,32,-10.00
2023,04,23,10,33,-10.00
2023,04,23,10,34,-10.00
2023,04,23,10,35,-10.00
2023,04,23,10,36,-10.00
2023,04,23,10,37,-10.00
2023,04,23,10,38,-10.00
2023,04,23,10,39,-10.00
2023,04,23,10,40,-10.00
2023,04,23,10,41,-10.00
2023,04,23,10,42,-10.00
2023,04,23,10,43,-10.00
2023,04,23,10,44,-10.00
2023,04,23,10,45,-10.00
2023,04,23,10,46,-10.00
2023,04,23,10,47,-10.00
2023,04,23,10,48,-10.00
2023,04,23,10,49,-10.00
2023,04,23,10,50,-10.00
2023,04,23,10,51,-10.00
2023,04,23,10,52,-10.00
2023,04,23,10,53,-10.00
2023,04,23,10,54,-10.00
2023,04,23,10,55,-10.00
2023,04,23,10,56,-10.00
2023,04,23,10,57,-10.00
2023,04,23,10,58,-10.00
2023,04,23,10,59,-10.00
2023,04,23,11,00,-10.00
2023,04,23,11,01,-10.00
2023,04,23,11,02,-9.90
2023,04,23,11,03,-9.90
2023,04,23,11,04,-9.90
2023,04,23,11,05,-9.80
2023,04,23,11,06,-9.80
2023,04,23,11,07,-9.80
2023,04,23,11,08,-9.80
2023,04,23,11,09,-9.80
2023,04,23,11,10,-9.80
2023,04,23,11,11,-9.80
2023,04,23,11,12,-9.80
2023,04,23,11,13,-9.80
2023,04,23,11,14,-9.80
2023,04,23,11,15,-9.80
2023,04,23,11,16,-9.80
2023,04,23,11,17,-9.80
2023,04,23,11,18,-9.80
2023,04,23,11,19,-9.80
2023,04,23,11,20,-9.80
2023,04,23,11,21,-9.80
2023,04,23,11,22,-9.80
2023,04,23,11,23,-9.80
2023,04,23,11,24,-9.80
2023,04,23,11,25,-9.80
2023,04,23,11,26,-9.70
2023,04,23,11,27,-9.70
2023,04,23,11,28,-9.70
2023,04,23,11,29,-9.80
2023,04,23,11,30,-9.80
2023,04,23,11,31,-9.80
2023,04,23,11,32,-9.70
2023,04,23,11,33,-9.70
2023,04,23,11,34,-9.70
2023,04,23,11,35,-9.70
2023,04,23,11,36,-9.70
2023,04,23,11,37,-9.70
2023,04,23,11,38,-9.70
2023,04,23,11,39,-9.80
2023,04,23,11,40,-9.70
2023,04,23,11,41,-9.70
2023,04,23,11,42,-9.70
2023,04,23,11,43,-9.70
2023,04,23,11,44,-9.70
2023,04,23,11,45,-9.70
2023,04,23,11,46,-9.70
2023,04,23,11,47,-9.70
2023,04,23,11,48,-9.70
2023,04,23,11,49,-9.70
2023,04,23,11,50,-9.60
2023,04,23,11,51,-9.60
2023,04,23,11,52,-9.60
2023,04,23,11,53,-9.60
2023,04,23,11,54,-9.60
2023,04,23,11,55,-9.60
2023,04,23,11,56,-9.60
2023,04,23,11,57,-9.60
2023,04,23,11,58,-9.60
2023,04,23,11,59,-9.60
2023,04,23,12,00,-9.60
2023,04,23,12,01,-9.60
2023,04,23,12,02,-9.60
2023,04,23,12,03,-9.60
2023,04,23,12,04,-9.60
2023,04,23,12,05,-9.60
2023,04,23,12,06,-9.50
2023,04,23,12,07,-9.50
2023,04,23,12,08,-9.50
2023,04,23,12,09,-9.50
2023,04,23,12,10,-9.50
2023,04,23,12,11,-9.40
2023,04,23,12,12,-9.40
2023,04,23,12,13,-9.40
2023,04,23,12,14,-9.40
2023,04,23,12,15,-9.40
2023,04,23,12,16,-9.40
2023,04,23,12,17,-9.40
2023,04,23,12,18,-9.40
2023,04,23,12,19,-9.40
2023,04,23,12,20,-9.40
2023,04,23,12,21,-9.30
2023,04,23,12,22,-9.30
2023,04,23,12,23,-9.30
2023,04,23,12,24,-9.40
2023,04,23,12,25,-9.40
2023,04,23,12,26,-9.30
2023,04,23,12,27,-9.30
2023,04,23,12,28,-9.30
2023,04,23,12,29,-9.30
2023,04,23,12,30,-9.30
2023,04,23,12,31,-9.30
2023,04,23,12,32,-9.30
2023,04,23,12,33,-9.30
2023,04,23,12,34,-9.30
2023,04,23,12,35,-9.30
2023,04,23,12,36,-9.30
2023,04,23,12,37,-9.30
2023,04,23,12,38,-9.30
2023,04,23,12,39,-9.20
2023,04,23,12,40,-9.20
2023,04,23,12,41,-9.20
2023,04,23,12,42,-9.20
2023,04,23,12,43,-9.20
2023,04,23,12,44,-9.20
2023,04,23,12,45,-9.20
2023,04,23,12,46,-9.20
2023,04,23,12,47,-9.20
2023,04,23,12,48,-9.20
2023,04,23,12,49,-9.20
2023,04,23,12,50,-9.20
2023,04,23,12,51,-9.20
2023,04,23,12,52,-9.20
2023,04,23,12,53,-9.20
2023,04,23,12,54,-9.20
2023,04,23,12,55,-9.20
2023,04,23,12,56,-9.20
2023,04,23,12,57,-9.20
2023,04,23,12,58,-9.20
2023,04,23,12,59,-9.20
2023,04,23,13,00,-9.20
2023,04,23,13,01,-9.10
2023,04,23,13,02,-9.10
2023,04,23,13,03,-9.10
2023,04,23,13,04,-9.10
2023,04,23,13,05,-9.10
2023,04,23,13,06,-9.10
2023,04,23,13,07,-9.10
2023,04,23,13,08,-9.10
2023,04,23,13,09,-9.10
2023,04,23,13,10,-9.10
2023,04,23,13,11,-9.10
2023,04,23,13,12,-9.00
2023,04,23,13,13,-9.00
2023,04,23,13,14,-8.90
2023,04,23,13,15,-8.90
2023,04,23,13,16,-8.90
2023,04,23,13,17,-8.90
2023,04,23,13,18,-8.80
2023,04,23,13,19,-8.80
2023,04,23,13,20,-8.80
2023,04,23,13,21,-8.80
2023,04,23,13,22,-8.70
2023,04,23,13,23,-8.70
2023,04,23,13,24,-8.70
2023,04,23,13,25,-8.70
2023,04,23,13,26,-8.70
2023,04,23,13,27,-8.70
2023,04,23,13,28,-8.70
2023,04,23,13,29,-8.70
2023,04,23,13,30,-8.70
2023,04,23,13,31,-8.70
2023,04,23,13,32,-8.60
2023,04,23,13,33,-8.60
2023,04,23,13,34,-8.60
2023,04,23,13,35,-8.60
2023,04,23,13,36,-8.60
2023,04,23,13,37,-8.60
2023,04,23,13,38,-8.60
2023,04,23,13,39,-8.60
2023,04,23,13,40,-8.50
2023,04,23,13,41,-8.50
2023,04,23,13,42,-8.50
2023,04,23,13,43,-8.50
2023,04,23,13,44,-8.50
2023,04,23,13,45,-8.50
2023,04,23,13,46,-8.50
2023,04,23,13,47,-8.50
2023,04,23,13,48,-8.50
2023,04,23,13,49,-8.60
2023,04,23,13,50,-8.60
2023,04,23,13,51,-8.60
2023,04,23,13,52,-8.50
2023,04,23,13,53,-8.50
2023,04,23,13,54,-8.50
2023,04,23,13,55,-8.50
2023,04,23,13,56,-8.40
2023,04,23,13,57,-8.40
2023,04,23,13,58,-8.40
2023,04,23,13,59,-8.40
2023,04,23,14,00,-8.40
2023,04,23,14,01,-8.50
2023,04,23,14,02,-8.40
2023,04,23,14,03,-8.40
2023,04,23,14,04,-8.40
2023,04,23,14,05,-8.40
2023,04,23,14,06,-8.40
2023,04,23,14,07,-8.40
2023,04,23,14,08,-8.40
2023,04,23,14,09,-8.40
2023,04,23,14,10,-8.40
2023,04,23,14,11,-8.40
2023,04,23,14,12,-8.40
2023,04,23,14,13,-8.40
2023,04,23,14,14,-8.40
2023,04,23,14,15,-8.40
2023,04,23,14,16,-8.40
2023,04,23,14,17,-8.40
2023,04,23,14,18,-8.40
2023,04,23,14,19,-8.40
2023,04,23,14,20,-8.40
2023,04,23,14,21,-8.30
2023,04,23,14,22,-8.30
2023,04,23,14,23,-8.30
2023,04,23,14,24,-8.30
2023,04,23,14,25,-8.30
2023,04,23,14,26,-8.20
2023,04,23,14,27,-8.20
2023,04,23,14,28,-8.20
2023,04,23,14,29,-8.20
2023,04,23,14,30,-8.20
2023,04,23,14,31,-8.20
2023,04,23,14,32,-8.20
2023,04,23,14,33,-8.10
2023,04,23,14,34,-8.10
2023,04,23,14,35,-8.10
2023,04,23,14,36,-8.10
2023,04,23,14,37,-8.10
2023,04,23,14,38,-8.10
2023,04,23,14,39,-8.10
2023,04,23,14,40,-8.10
2023,04,23,14,41,-8.00
2023,04,23,14,42,-8.00
2023,04,23,14,43,-8.00
2023,04,23,14,44,-8.00
2023,04,23,14,45,-8.00
2023,04,23,14,46,-8.00
2023,04,23,14,47,-7.90
2023,04,23,14,48,-7.90
2023,04,23,14,49,-7.90
2023,04,23,14,50,-7.90
2023,04,23,14,51,-7.90
2023,04,23,14,52,-7.90
2023,04,23,14,53,-7.90
2023,04,23,14,54,-7.80
2023,04,23,14,55,-7.80
2023,04,23,14,56,-7.90
2023,04,23,14,57,-7.90
2023,04,23,14,58,-7.90
2023,04,23,14,59,-7.90
2023,04,23,15,00,-7.90
2023,04,23,15,01,-7.90
2023,04,23,15,02,-7.90
2023,04,23,15,03,-7.90
2023,04,23,15,04,-7.90
2023,04,23,15,05,-7.90
2023,04,23,15,06,-7.90
2023,04,23,15,07,-7.90
2023,04,23,15,08,-7.90
2023,04,23,15,09,-7.90
2023,04,23,15,10,-7.90
2023,04,23,15,11,-7.90
2023,04,23,15,12,-7.80
2023,04,23,15,13,-7.80
2023,04,23,15,14,-7.80
2023,04,23,15,15,-7.80
2023,04,23,15,16,-7.80
2023,04,23,15,17,-7.80
2023,04,23,15,18,-7.80
2023,04,23,15,19,-7.70
2023,04,23,15,20,-7.70
2023,04,23,15,21,-7.70
2023,04,23,15,22,-7.60
2023,04,23,15,23,-7.60
2023,04,23,15,24,-7.60
2023,04,23,15,25,-7.70
2023,04,23,15,26,-7.70
2023,04,23,15,27,-7.70
2023,04,23,15,28,-7.70
2023,04,23,15,29,-7.70
2023,04,23,15,30,-7.60
2023,04,23,15,31,-7.60
2023,04,23,15,32,-7.60
2023,04,23,15,33,-7.60
2023,04,23,15,34,-7.60
2023,04,23,15,35,-7.60
2023,04,23,15,36,-7.70
2023,04,23,15,37,-7.70
2023,04,23,15,38,-7.70
2023,04,23,15,39,-7.70
2023,04,23,15,40,-7.70
2023,04,23,15,41,-7.70
2023,04,23,15,42,-7.70
2023,04,23,15,43,-7.70
2023,04,23,15,44,-7.70
2023,04,23,15,45,-7.60
2023,04,23,15,46,-7.60
2023,04,23,15,47,-7.60
2023,04,23,15,48,-7.60
2023,04,23,15,49,-7.60
2023,04,23,15,50,-7.60
2023,04,23,15,51,-7.60
2023,04,23,15,52,-7.60
2023,04,23,15,53,-7.60
2023,04,23,15,54,-7.60
2023,04,23,15,55,-7.60
2023,04,23,15,56,-7.70
2023,04,23,15,57,-7.70
2023,04,23,15,58,-7.70
2023,04,23,15,59,-7.70
2023,04,23,16,00,-7.70
2023,04,23,16,01,-7.70
2023,04,23,16,02,-7.60
2023,04,23,16,03,-7.60
2023,04,23,16,04,-7.60
2023,04,23,16,05,-7.60
2023,04,23,16,06,-7.60
2023,04,23,16,07,-7.60
2023,04,23,16,08,-7.60
2023,04,23,16,09,-7.50
2023,04,23,16,10,-7.50
2023,04,23,16,11,-7.50
2023,04,23,16,12,-7.50
2023,04,23,16,13,-7.50
2023,04,23,16,14,-7.50
2023,04,23,16,15,-7.50
2023,04,23,16,16,-7.50
2023,04,23,16,17,-7.50
2023,04,23,16,18,-7.40
2023,04,23,16,19,-7.40
2023,04,23,16,20,-7.40
2023,04,23,16,21,-7.40
2023,04,23,16,22,-7.30
2023,04,23,16,23,-7.30
2023,04,23,16,24,-7.30
2023,04,23,16,25,-7.30
2023,04,23,16,26,-7.30
2023,04,23,16,27,-7.30
2023,04,23,16,28,-7.30
2023,04,23,16,29,-7.30
2023,04,23,16,30,-7.30
2023,04,23,16,31,-7.30
2023,04,23,16,32,-7.30
2023,04,23,16,33,-7.30
2023,04,23,16,34,-7.30
2023,04,23,16,35,-7.30
2023,04,23,16,36,-7.40
2023,04,23,16,37,-7.40
2023,04,23,16,38,-7.40
2023,04,23,16,39,-7.30
2023,04,23,16,40,-7.30
2023,04,23,16,41,-7.30
2023,04,23,16,42,-7.30
2023,04,23,16,43,-7.30
2023,04,23,16,44,-7.30
2023,04,23,16,45,-7.30
2023,04,23,16,46,-7.30
2023,04,23,16,47,-7.40
2023,04,23,16,48,-7.40
2023,04,23,16,49,-7.40
2023,04,23,16,50,-7.40
2023,04,23,16,51,-7.40
2023,04,23,16,52,-7.40
2023,04,23,16,53,-7.50
2023,04,23,16,54,-7.50
2023,04,23,16,55,-7.50
2023,04,23,16,56,-7.50
2023,04,23,16,57,-7.50
2023,04,23,16,58,-7.60
2023,04,23,16,59,-7.60
2023,04,23,17,00,-7.50
2023,04,23,17,01,-7.50
2023,04,23,17,02,-7.50
2023,04,23,17,03,-7.40
2023,04,23,17,04,-7.50
2023,04,23,17,05,-7.50
2023,04,23,17,06,-7.50